Fallon NAS, NV

12:27 AM PST on December 17, 2017 (GMT -0800)
Fallon Naval Air Station

Weather History for KNFL - December, 2011

Change the Weather History Date:

Thursday, December 15, 2011

  Actual Average Record
Temperature  
Mean Temperature 34 °F -  
Max Temperature 46 °F 45 °F 66 °F (1962)
Min Temperature 21 °F 18 °F -7 °F (1931)
Degree Days  
Heating Degree Days 32    
Moisture  
Dew Point 18 °F    
Average Humidity 59    
Maximum Humidity 78    
Minimum Humidity 44    
Precipitation  
Precipitation 0.00 in - - ()
Sea Level Pressure  
Sea Level Pressure 30.11 in    
Wind  
Wind Speed 3 mph (NNW)    
Max Wind Speed 14 mph    
Max Gust Speed -    
Visibility 10 miles    
Events      
Averages and records for this station are not official NWS values.
T = Trace of Precipitation, MM = Missing Value Source: NWS Daily Summary

Daily Weather History Graph

Daily Weather History Graph

Search for Another Location

Airport or City:

Trip Planner

Search our weather history database for the weather conditions in past years. The results will help you decide how hot, cold, wet, or windy it might be!

Date:

Astronomy

Dec. 15, 2011 Rise Set
Actual Time 7:07 AM PST 4:32 PM PST
Civil Twilight 6:37 AM PST 5:02 PM PST
Nautical Twilight 6:03 AM PST 5:36 PM PST
Astronomical Twilight 5:31 AM PST 6:08 PM PST
Moon 10:02 PM PST (12/15) 10:27 AM PST (12/15)
Length of Visible Light 10h 24m
Length of Day
9h 24m
Waning Gibbous, 73% of the Moon is Illuminated
Dec 15
Waning Gibbous
Dec 17
Last Quarter
Dec 24
New
Dec 31
First Quarter
Jan 8
Full

Hourly Weather History & Observations

Time (PST) Temp. Windchill Dew Point Humidity Pressure Visibility Wind Dir Wind Speed Gust Speed Precip Events Conditions
12:56 AM 23.0 °F - 12.0 °F 63% 30.03 in 10.0 mi Calm Calm - N/A   Clear
1:56 AM 25.0 °F - 12.9 °F 60% 30.04 in 10.0 mi Calm Calm - N/A   Mostly Cloudy
2:56 AM 26.1 °F - 12.0 °F 55% 30.03 in 10.0 mi Calm Calm - N/A   Overcast
3:56 AM 24.1 °F - 12.0 °F 60% 30.03 in 10.0 mi Calm Calm - N/A   Clear
4:56 AM 23.0 °F 18.4 °F 10.9 °F 60% 30.04 in 10.0 mi SW 3.5 mph - N/A   Partly Cloudy
5:56 AM 25.0 °F - 12.9 °F 60% 30.05 in 10.0 mi Calm Calm - N/A   Overcast
6:15 AM 24.8 °F 19.1 °F 12.2 °F 59% 30.15 in 10.0 mi ENE 4.6 mph - N/A   Overcast
6:56 AM 27.0 °F - 12.9 °F 56% 30.07 in 10.0 mi Calm Calm - N/A   Overcast
7:56 AM 27.0 °F 21.6 °F 14.0 °F 58% 30.08 in 10.0 mi WNW 4.6 mph - N/A   Overcast
8:56 AM 32.0 °F 26.4 °F 16.0 °F 52% 30.10 in 10.0 mi NW 5.8 mph - N/A   Mostly Cloudy
9:56 AM 36.0 °F 32.1 °F 21.0 °F 55% 30.12 in 10.0 mi North 4.6 mph - N/A   Mostly Cloudy
10:56 AM 39.9 °F 35.1 °F 24.1 °F 53% 30.12 in 10.0 mi WNW 6.9 mph - N/A   Scattered Clouds
11:56 AM 43.0 °F 41.3 °F 26.1 °F 51% 30.11 in 10.0 mi Variable 3.5 mph - N/A   Mostly Cloudy
12:56 PM 45.0 °F 39.7 °F 25.0 °F 46% 30.10 in 10.0 mi North 10.4 mph - N/A   Mostly Cloudy
1:56 PM 46.0 °F 39.9 °F 25.0 °F 44% 30.10 in 10.0 mi North 13.8 mph - N/A   Mostly Cloudy
2:56 PM 43.0 °F 38.2 °F 25.0 °F 49% 30.11 in 10.0 mi North 8.1 mph - N/A   Scattered Clouds
3:56 PM 45.0 °F 41.8 °F 25.0 °F 46% 30.12 in 10.0 mi NNE 5.8 mph - N/A   Scattered Clouds
4:56 PM 35.1 °F 30.1 °F 21.0 °F 57% 30.14 in 10.0 mi North 5.8 mph - N/A   Scattered Clouds
5:56 PM 32.0 °F 24.8 °F 21.0 °F 64% 30.15 in 10.0 mi North 8.1 mph - N/A   Partly Cloudy
6:56 PM 30.9 °F 26.2 °F 21.0 °F 67% 30.18 in 10.0 mi NE 4.6 mph - N/A   Scattered Clouds
7:56 PM 28.0 °F - 19.9 °F 72% 30.19 in 10.0 mi Calm Calm - N/A   Partly Cloudy
8:56 PM 21.9 °F 17.2 °F 16.0 °F 78% 30.20 in 10.0 mi Variable 3.5 mph - N/A   Clear
9:56 PM 25.0 °F - 18.0 °F 75% 30.22 in 10.0 mi Calm Calm - N/A   Clear
10:56 PM 21.9 °F 15.7 °F 16.0 °F 78% 30.24 in 10.0 mi SW 4.6 mph - N/A   Clear